| time (UTC) | temp C | wind direction | speed KPH | gust KPH | rain 1hr cm | rain 24hr cm | rain mn cm | humidity % | barometer mb |
| 20260505081541 | 23 | 38 | 3.2 | 6.4 | 0.00 | 0.00 | 0.00 | 91 | 1015.7 |
| 20260505081516 | 23 | 38 | 3.2 | 6.4 | 0.00 | 0.00 | 0.00 | 91 | 1016.3 |
| 20260505080044 | 23 | 53 | 3.2 | 6.4 | 0.00 | 0.00 | 0.00 | 90 | 1015.7 |
| 20260505080012 | 23 | 53 | 3.2 | 6.4 | 0.00 | 0.00 | 0.00 | 91 | 1016.4 |
| 20260505074539 | 24 | 37 | 3.2 | 6.4 | 0.00 | 0.00 | 0.00 | 91 | 1015.5 |
| 20260505074511 | 24 | 37 | 3.2 | 6.4 | 0.00 | 0.00 | 0.00 | 91 | 1016.3 |
| 20260505073043 | 24 | 33 | 1.6 | 6.4 | 0.00 | 0.00 | 0.00 | 91 | 1015.5 |
| 20260505073017 | 24 | 33 | 3.2 | 6.4 | 0.00 | 0.00 | 0.00 | 92 | 1016.4 |
| 20260505071542 | 24 | 43 | 3.2 | 6.4 | 0.00 | 0.00 | 0.00 | 91 | 1015.5 |
| 20260505071516 | 24 | 43 | 3.2 | 6.4 | 0.00 | 0.00 | 0.00 | 92 | 1016.4 |
| 20260505070038 | 24 | 65 | 1.6 | 6.4 | 0.00 | 0.00 | 0.00 | 91 | 1015.5 |
| 20260505070009 | 24 | 65 | 3.2 | 4.8 | 0.00 | 0.00 | 0.00 | 92 | 1016.3 |
| 20260505064537 | 24 | 40 | 3.2 | 8.0 | 0.00 | 0.03 | 0.00 | 91 | 1015.6 |
| 20260505064521 | 24 | 57 | 4.8 | 8.0 | 0.00 | 0.03 | 0.00 | 92 | 1016.4 |
| 20260505063045 | 24 | 43 | 3.2 | 6.4 | 0.00 | 0.03 | 0.00 | 91 | 1015.7 |
| 20260505063005 | 24 | 43 | 3.2 | 6.4 | 0.00 | 0.03 | 0.00 | 92 | 1016.6 |
| 20260505061540 | 23 | 56 | 1.6 | 6.4 | 0.00 | 0.03 | 0.00 | 91 | 1015.8 |
| 20260505061501 | 23 | 56 | 1.6 | 6.4 | 0.00 | 0.03 | 0.00 | 92 | 1016.7 |
| 20260505060103 | 23 | 52 | 3.2 | 6.4 | 0.00 | 0.03 | 0.00 | 91 | 1016.9 |
| 20260505060037 | 23 | 52 | 3.2 | 6.4 | 0.00 | 0.03 | 0.00 | 91 | 1016.0 |
| 20260505054627 | 23 | 54 | 3.2 | 6.4 | 0.00 | 0.03 | 0.00 | 91 | 1017.0 |
| 20260505054549 | 23 | 55 | 3.2 | 9.7 | 0.00 | 0.03 | 0.00 | 90 | 1016.2 |
| 20260505053108 | 24 | 35 | 4.8 | 8.0 | 0.00 | 0.03 | 0.00 | 90 | 1017.1 |
| 20260505053044 | 24 | 42 | 4.8 | 8.0 | 0.00 | 0.03 | 0.00 | 90 | 1016.4 |
| 20260505051553 | 24 | 38 | 1.6 | 6.4 | 0.00 | 0.03 | 0.00 | 90 | 1017.4 |
| 20260505051543 | 24 | 38 | 1.6 | 6.4 | 0.00 | 0.03 | 0.00 | 90 | 1016.5 |
| 20260505041555 | 24 | 43 | 3.2 | 6.4 | 0.00 | 0.03 | 0.00 | 90 | 1018.0 |
| 20260505041544 | 24 | 43 | 3.2 | 6.4 | 0.00 | 0.03 | 0.00 | 89 | 1017.0 |
| 20260505040041 | 24 | 43 | 1.6 | 6.4 | 0.00 | 0.03 | 0.00 | 89 | 1017.1 |
| 20260505034539 | 25 | 40 | 3.2 | 8.0 | 0.00 | 0.03 | 0.03 | 89 | 1018.2 |
| 20260505034537 | 25 | 40 | 4.8 | 8.0 | 0.00 | 0.03 | 0.03 | 88 | 1017.2 |
| 20260505033039 | 25 | 40 | 3.2 | 6.4 | 0.00 | 0.03 | 0.03 | 89 | 1018.4 |
| 20260505033037 | 25 | 40 | 1.6 | 6.4 | 0.00 | 0.03 | 0.03 | 89 | 1017.3 |
| 20260505031548 | 25 | 37 | 1.6 | 6.4 | 0.00 | 0.03 | 0.03 | 89 | 1018.4 |
| 20260505031539 | 25 | 37 | 1.6 | 6.4 | 0.00 | 0.03 | 0.03 | 89 | 1017.3 |
| 20260505030051 | 25 | 47 | 3.2 | 6.4 | 0.00 | 0.03 | 0.03 | 89 | 1017.3 |
| 20260505030038 | 25 | 47 | 3.2 | 6.4 | 0.00 | 0.03 | 0.03 | 89 | 1018.4 |
| 20260505024541 | 25 | 49 | 3.2 | 8.0 | 0.00 | 0.03 | 0.03 | 89 | 1018.4 |
| 20260505024537 | 25 | 55 | 3.2 | 8.0 | 0.00 | 0.03 | 0.03 | 88 | 1017.3 |
| 20260505023036 | 25 | 39 | 3.2 | 6.4 | 0.00 | 0.03 | 0.03 | 89 | 1017.3 |
| 20260505021544 | 25 | 49 | 3.2 | 6.4 | 0.00 | 0.03 | 0.03 | 88 | 1017.2 |
| 20260505021536 | 25 | 38 | 3.2 | 6.4 | 0.00 | 0.03 | 0.03 | 89 | 1018.1 |
| 20260505020049 | 25 | 52 | 3.2 | 6.4 | 0.00 | 0.03 | 0.03 | 88 | 1017.0 |
| 20260505020035 | 25 | 52 | 3.2 | 6.4 | 0.00 | 0.03 | 0.03 | 89 | 1018.0 |
| 20260505014537 | 25 | 23 | 3.2 | 6.4 | 0.00 | 0.03 | 0.03 | 88 | 1018.1 |
| 20260505014535 | 25 | 38 | 3.2 | 6.4 | 0.00 | 0.03 | 0.03 | 87 | 1016.9 |
| 20260505013037 | 25 | 53 | 3.2 | 8.0 | 0.00 | 0.03 | 0.03 | 87 | 1016.8 |
| 20260505013031 | 25 | 53 | 4.8 | 8.0 | 0.00 | 0.03 | 0.03 | 88 | 1018.0 |
| 20260505011631 | 25 | 26 | 3.2 | 8.0 | 0.00 | 0.03 | 0.03 | 88 | 1017.8 |
| 20260505011536 | 25 | 42 | 3.2 | 6.4 | 0.00 | 0.03 | 0.03 | 87 | 1016.6 |
| 20260505010057 | 25 | 42 | 3.2 | 8.0 | 0.00 | 0.03 | 0.03 | 87 | 1016.5 |
| 20260505010030 | 25 | 42 | 3.2 | 8.0 | 0.00 | 0.03 | 0.03 | 87 | 1017.8 |
| 20260505004543 | 26 | 40 | 1.6 | 6.4 | 0.00 | 0.03 | 0.03 | 87 | 1017.6 |
| 20260505004535 | 25 | 32 | 3.2 | 6.4 | 0.00 | 0.03 | 0.03 | 86 | 1016.4 |
| 20260505003046 | 26 | 56 | 3.2 | 6.4 | 0.00 | 0.03 | 0.03 | 86 | 1016.3 |
| 20260505003029 | 26 | 56 | 3.2 | 6.4 | 0.00 | 0.03 | 0.03 | 86 | 1017.5 |
| 20260505001539 | 26 | 64 | 3.2 | 6.4 | 0.00 | 0.03 | 0.03 | 86 | 1016.3 |
| 20260505001528 | 26 | 63 | 3.2 | 8.0 | 0.00 | 0.03 | 0.03 | 86 | 1017.4 |
| 20260505000043 | 27 | 44 | 3.2 | 6.4 | 0.00 | 0.03 | 0.03 | 85 | 1016.4 |
| 20260505000041 | 27 | 44 | 3.2 | 6.4 | 0.00 | 0.03 | 0.03 | 86 | 1017.4 |
| 20260504234534 | 27 | 0 | 3.2 | 9.7 | 0.00 | 0.03 | 0.03 | 85 | 1016.3 |
| 20260504234528 | 27 | 84 | 1.6 | 9.7 | 0.00 | 0.03 | 0.03 | 86 | 1017.4 |
| 20260504233041 | 27 | 74 | 1.6 | 9.7 | 0.00 | 0.03 | 0.03 | 85 | 1016.1 |
| 20260504233026 | 27 | 74 | 1.6 | 8.0 | 0.00 | 0.03 | 0.03 | 85 | 1017.3 |
| 20260504231535 | 27 | 95 | 3.2 | 9.7 | 0.00 | 0.03 | 0.03 | 84 | 1016.0 |
| 20260504231530 | 27 | 92 | 3.2 | 6.4 | 0.00 | 0.03 | 0.03 | 84 | 1017.1 |
| 20260504230048 | 27 | 121 | 3.2 | 11.3 | 0.00 | 0.03 | 0.03 | 84 | 1015.9 |
| 20260504230025 | 27 | 121 | 3.2 | 11.3 | 0.00 | 0.03 | 0.03 | 84 | 1017.1 |
| 20260504224550 | 27 | 153 | 6.4 | 12.9 | 0.00 | 0.03 | 0.03 | 83 | 1015.9 |
| 20260504224524 | 27 | 113 | 8.0 | 12.9 | 0.00 | 0.03 | 0.03 | 84 | 1017.0 |
| 20260504223036 | 27 | 91 | 8.0 | 12.9 | 0.00 | 0.03 | 0.03 | 83 | 1015.6 |
| 20260504223024 | 27 | 91 | 6.4 | 12.9 | 0.00 | 0.03 | 0.03 | 83 | 1016.8 |
| 20260504221535 | 27 | 162 | 4.8 | 14.5 | 0.00 | 0.03 | 0.03 | 83 | 1015.5 |
| 20260504221523 | 27 | 113 | 4.8 | 14.5 | 0.00 | 0.03 | 0.03 | 84 | 1016.8 |
| 20260504220035 | 27 | 109 | 6.4 | 16.1 | 0.00 | 0.03 | 0.03 | 82 | 1015.3 |
| 20260504220022 | 27 | 98 | 4.8 | 14.5 | 0.00 | 0.03 | 0.03 | 83 | 1016.5 |
| 20260504214543 | 27 | 114 | 9.7 | 16.1 | 0.00 | 0.03 | 0.03 | 82 | 1015.2 |
| 20260504214521 | 27 | 121 | 11.3 | 16.1 | 0.00 | 0.03 | 0.03 | 83 | 1016.4 |
| 20260504213036 | 28 | 121 | 8.0 | 16.1 | 0.00 | 0.03 | 0.03 | 82 | 1015.1 |
| 20260504213020 | 28 | 109 | 6.4 | 16.1 | 0.00 | 0.03 | 0.03 | 82 | 1016.2 |
| 20260504211537 | 28 | 165 | 6.4 | 17.7 | 0.00 | 0.03 | 0.03 | 82 | 1014.9 |
| 20260504211519 | 28 | 165 | 9.7 | 17.7 | 0.00 | 0.03 | 0.03 | 82 | 1016.2 |
| 20260504210052 | 28 | 134 | 8.0 | 17.7 | 0.00 | 0.03 | 0.03 | 82 | 1014.9 |
| 20260504210022 | 28 | 121 | 8.0 | 17.7 | 0.00 | 0.03 | 0.03 | 83 | 1015.9 |
| 20260504204531 | 28 | 80 | 6.4 | 16.1 | 0.00 | 0.03 | 0.03 | 82 | 1014.9 |
| 20260504204516 | 28 | 80 | 8.0 | 16.1 | 0.00 | 0.03 | 0.03 | 83 | 1016.0 |
| 20260504203043 | 28 | 140 | 8.0 | 16.1 | 0.00 | 0.03 | 0.03 | 82 | 1014.9 |
| 20260504203014 | 28 | 134 | 9.7 | 16.1 | 0.00 | 0.03 | 0.03 | 82 | 1016.0 |
| 20260504201539 | 28 | 98 | 8.0 | 17.7 | 0.00 | 0.03 | 0.03 | 81 | 1015.0 |
| 20260504201514 | 28 | 115 | 8.0 | 17.7 | 0.00 | 0.03 | 0.03 | 82 | 1016.1 |
| 20260504200049 | 28 | 146 | 8.0 | 19.3 | 0.00 | 0.03 | 0.03 | 82 | 1015.1 |
| 20260504200011 | 28 | 163 | 9.7 | 19.3 | 0.00 | 0.03 | 0.03 | 82 | 1016.3 |
| 20260504194536 | 28 | 108 | 11.3 | 20.9 | 0.00 | 0.03 | 0.03 | 80 | 1015.2 |
| 20260504194510 | 28 | 88 | 11.3 | 20.9 | 0.00 | 0.03 | 0.03 | 81 | 1016.3 |
| 20260504193039 | 28 | 130 | 11.3 | 19.3 | 0.00 | 0.03 | 0.03 | 79 | 1015.3 |
| 20260504193008 | 28 | 109 | 12.9 | 19.3 | 0.00 | 0.03 | 0.03 | 80 | 1016.3 |
| 20260504191537 | 28 | 121 | 11.3 | 24.1 | 0.00 | 0.03 | 0.03 | 81 | 1015.4 |
| 20260504191508 | 28 | 157 | 9.7 | 24.1 | 0.00 | 0.03 | 0.03 | 81 | 1016.4 |
| 20260504190126 | 28 | 150 | 9.7 | 17.7 | 0.00 | 0.03 | 0.03 | 85 | 1016.5 |
| 20260504190039 | 28 | 178 | 6.4 | 16.1 | 0.00 | 0.03 | 0.03 | 84 | 1015.5 |
| 20260504184539 | 28 | 99 | 11.3 | 22.5 | 0.00 | 0.03 | 0.03 | 82 | 1015.7 |
| 20260504184504 | 28 | 106 | 11.3 | 20.9 | 0.00 | 0.03 | 0.03 | 83 | 1016.6 |
| 20260504183037 | 29 | 190 | 11.3 | 25.7 | 0.00 | 0.03 | 0.03 | 79 | 1015.6 |
| 20260504183002 | 29 | 182 | 12.9 | 25.7 | 0.00 | 0.03 | 0.03 | 79 | 1016.5 |
| 20260504181540 | 29 | 126 | 14.5 | 24.1 | 0.00 | 0.03 | 0.03 | 78 | 1015.7 |
| 20260504181502 | 29 | 108 | 14.5 | 22.5 | 0.00 | 0.03 | 0.03 | 79 | 1016.6 |
| 20260504180117 | 28 | 136 | 11.3 | 25.7 | 0.00 | 0.03 | 0.03 | 79 | 1016.9 |
| 20260504180039 | 28 | 89 | 14.5 | 25.7 | 0.00 | 0.03 | 0.03 | 78 | 1016.1 |
| 20260504174558 | 29 | 157 | 11.3 | 22.5 | 0.00 | 0.03 | 0.03 | 77 | 1017.4 |
| 20260504174536 | 29 | 109 | 12.9 | 24.1 | 0.00 | 0.03 | 0.03 | 77 | 1016.1 |
| 20260504173055 | 29 | 138 | 12.9 | 27.4 | 0.00 | 0.03 | 0.03 | 78 | 1017.4 |
| 20260504173035 | 29 | 123 | 11.3 | 27.4 | 0.00 | 0.03 | 0.03 | 77 | 1016.3 |
| 20260504171554 | 29 | 137 | 9.7 | 25.7 | 0.00 | 0.03 | 0.03 | 79 | 1017.5 |
| 20260504171535 | 29 | 153 | 9.7 | 29.0 | 0.00 | 0.03 | 0.03 | 78 | 1016.4 |